[[{"header":{"parameterUnit":"m.s-1","parameterCategory":1,"la1":30.2991,"la2":30.254,"lo1":-89.0895,"lo2":-89.0444,"dy":0.0017,"dx":0.0017,"nx":28,"ny":28,"refTime":"2024-05-03T09:00:00:Z","depth":0,"parameterNumber":2,"parameterNumberName":"U-component_of_WINDS"},"data":[0,0,0,0,0,0,0,0,0,0,0,0,0,0,0,0,0,0,0,0,0,0,0,0,0,0,0,0,0,0,0,0,0,0,0,0,0,0,0,0,0,0,0,0,0,0,0,0,0,0,0,0,0,0,0,0,0,0,-1.9211,-1.9211,0,-1.9179,-1.9179,-1.9178,-1.9082,-1.908,-1.9078,-1.9076,-1.9046,-1.9047,-1.9048,0,0,0,0,0,0,0,0,0,0,0,0,0,-1.9192,-1.9193,-1.9211,-1.9211,-1.921,-1.9179,-1.9179,-1.9178,-1.9082,-1.908,-1.9077,-1.9075,-1.9045,-1.9047,-1.9048,0,0,0,0,0,0,0,0,0,0,0,0,0,-1.9184,-1.9193,-1.9211,-1.9159,-1.9154,-1.9179,-1.9179,-1.9178,-1.9083,-1.908,-1.9076,-1.9073,-1.9045,-1.9046,-1.9048,-1.9123,0,0,-1.9054,-1.9054,0,0,0,0,0,0,0,0,-1.9185,-1.9185,-1.9167,-1.9162,-1.9157,-1.9131,-1.9161,-1.916,-1.9084,-1.911,-1.9076,-1.9072,-1.9077,-1.9076,-1.9077,-1.9122,-1.912,-1.9054,-1.9055,-1.9056,-1.9056,0,0,0,0,0,0,0,-1.9185,-1.9186,-1.9198,-1.9167,-1.916,-1.9137,-1.9133,-1.916,-1.9112,-1.9107,-1.91,-1.9098,-1.9073,-1.9075,-1.9075,-1.912,-1.9054,-1.9055,-1.9056,-1.9057,-1.9225,-1.9228,0,0,0,0,0,0,-1.9193,-1.9187,-1.9199,-1.9198,-1.9163,-1.914,-1.9135,-1.9143,-1.9111,-1.9103,-1.91,-1.9093,-1.9074,-1.9073,-1.9074,-1.9159,-1.9056,-1.9057,-1.9058,-1.9221,-1.9225,-1.9229,0,0,0,0,0,0,-1.9193,-1.9195,-1.9201,-1.919,-1.9189,-1.9144,-1.9153,-1.9144,-1.9145,-1.9106,-1.9097,-1.9111,-1.9071,-1.9072,-1.9111,-1.9157,-1.9058,-1.906,-1.9217,-1.9223,-1.9227,-1.9331,0,0,0,0,0,0,-1.9193,-1.9196,-1.9223,-1.9192,-1.919,-1.9238,-1.9156,-1.9145,-1.9148,-1.9139,-1.9113,-1.9106,-1.9069,-1.9109,-1.9113,-1.9157,-1.9061,-1.9213,-1.922,-1.9226,-1.9323,-1.9339,-1.9352,0,0,0,0,0,-1.9192,-1.9254,-1.9225,-1.9227,-1.9223,-1.9241,-1.924,-1.9195,-1.9153,-1.918,-1.9155,-1.9107,-1.9152,-1.9114,-1.9118,-1.9163,-1.921,-1.9218,-1.9225,-1.9316,-1.9336,-1.9352,0,0,0,0,0,0,-1.9292,-1.9249,-1.9216,-1.9269,-1.9259,-1.9225,-1.9258,-1.9217,-1.922,-1.9211,-1.9156,-1.9151,-1.9199,-1.9185,-1.9144,-1.9234,-1.9173,-1.9182,-1.9241,-1.9259,-1.9273,-1.9275,-1.9063,0,0,0,0,0,-1.9321,-1.9338,-1.9299,-1.935,-1.9346,-1.9303,-1.9309,-1.9276,-1.9264,-1.9259,-1.9237,-1.9228,-1.924,-1.9249,-1.9257,-1.9321,-1.9314,-1.9354,-1.9369,-1.9381,-1.9389,-1.9421,-1.9439,-1.9254,-1.9254,-1.9254,0,0,-1.9379,-1.9357,-1.9371,-1.9369,-1.9357,-1.9377,-1.93,-1.9325,-1.9339,-1.9263,-1.9299,-1.9283,-1.9269,-1.9321,-1.9343,-1.9311,-1.9438,-1.9391,-1.9401,-1.9402,-1.9431,-1.9448,-1.9464,-1.9259,-1.9258,-1.9258,0,0,-1.9495,-1.9481,-1.952,-1.9511,-1.9494,-1.9465,-1.9475,-1.9447,-1.9433,-1.9468,-1.9411,-1.9428,-1.945,-1.9442,-1.9442,-1.9556,-1.9513,-1.9561,-1.9636,-1.9669,-1.9683,-1.9696,-1.9736,-1.9752,-1.9569,-1.9569,-1.957,0,-1.957,-1.9596,-1.9547,-1.9574,-1.9575,-1.9507,-1.9548,-1.9541,-1.9529,-1.9531,-1.9496,-1.9522,-1.9508,-1.9557,-1.9585,-1.9587,-1.9597,-1.9563,-1.9685,-1.9697,-1.9708,-1.9746,-1.9762,-1.9575,-1.9575,-1.9574,-1.9573,0,-1.9689,-1.9708,-1.9743,-1.9732,-1.9737,-1.9771,-1.9727,-1.9739,-1.9705,-1.968,-1.9717,-1.9698,-1.9702,-1.9712,-1.9679,-1.9757,-1.9737,-1.9695,-1.9632,-1.9733,-1.9767,-1.9781,-1.9584,-1.9582,-1.958,-1.9578,0,0,-1.9866,-1.9827,-1.984,-1.9834,-1.9812,-1.9826,-1.9858,-1.9861,-1.9871,-1.9866,-1.9891,-1.9912,-1.9872,-1.9871,-1.9837,-1.9866,-1.9958,-1.982,-1.9818,-1.9845,-2.0042,-2.0073,-2.0091,-1.9929,-1.9932,-1.9934,-2.0043,0,-1.9975,-2.0025,-1.9982,-2.0041,-2.0059,-1.9995,-2.0023,-2.0012,-1.9991,-2.0003,-1.9979,-1.9994,-1.9941,-1.994,-1.9965,-1.9941,-1.9996,-1.9933,-1.9952,-1.9954,-1.9957,-2.0109,-2.0142,-2.0246,-2.0056,-2.0058,-2.006,0,-2.0108,-2.0108,-2.0169,-2.0142,-2.0148,-2.0173,-2.0172,-2.0185,-2.0173,-2.0155,-2.0154,-2.0113,-2.0143,-2.0083,-2.0124,-2.0082,-2.0087,-2.0077,-2.008,-2.0079,-2.0012,-2.0112,-2.0277,-2.0293,-2.0081,-2.0079,-2.0078,0,-2.0231,-2.0245,-2.0283,-2.028,-2.0251,-2.027,-2.0259,-2.0243,-2.0247,-2.0248,-2.025,-2.0254,-2.0256,-2.0261,-2.0222,-2.0182,-2.0269,-2.0205,-2.0255,-2.0256,-2.0275,-2.0274,-2.0443,-2.0281,-2.028,-2.028,-2.028,0,-2.0356,-2.0396,-2.0337,-2.0361,-2.0403,-2.0354,-2.0398,-2.038,-2.0367,-2.0387,-2.0333,-2.0352,-2.0301,-2.0315,-2.0286,-2.0324,-2.0326,-2.0312,-2.0304,-2.0316,-2.0318,-2.0319,-2.031,-2.0284,-2.0283,-2.0282,-2.0282,0,-2.0499,-2.0462,-2.0499,-2.0468,-2.0461,-2.0494,-2.0467,-2.0488,-2.0463,-2.0488,-2.0491,-2.0453,-2.0467,-2.0429,-2.0438,-2.0418,-2.0473,-2.0454,-2.0477,-2.0471,-2.0523,-2.0518,-2.0697,-2.0718,-2.0544,-2.0545,-2.0547,0,-2.0581,-2.061,-2.0582,-2.059,-2.0582,-2.0597,-2.0601,-2.0554,-2.0561,-2.0549,-2.0572,-2.0582,-2.0587,-2.0613,-2.0586,-2.0593,-2.0572,-2.0635,-2.0573,-2.0585,-2.0572,-2.0571,-2.0573,-2.0647,-2.065,-2.0651,-2.0653,0,-2.0731,-2.0711,-2.0718,-2.072,-2.0726,-2.0726,-2.0721,-2.0732,-2.0682,-2.0693,-2.0706,-2.0711,-2.072,-2.073,-2.0731,-2.072,-2.0679,-2.0673,-2.0684,-2.0697,-2.0709,-2.0702,-2.0511,-2.0668,-2.0667,-2.0666,-2.0665,-2.0664,-2.0845,-2.0867,-2.0851,-2.0861,-2.0853,-2.085,-2.0868,-2.0845,-2.0855,-2.0858,-2.0831,-2.085,-2.0838,-2.0835,-2.0828,-2.0844,-2.0815,-2.0832,-2.0837,-2.0841,-2.0849,-2.0708,-2.0844,-2.0843,-2.0843,-2.0843,-2.0842,0,-2.099,-2.0977,-2.0987,-2.0982,-2.0991,-2.0951,-2.0944,-2.0954,-2.0971,-2.0963,-2.0969,-2.0985,-2.0995,-2.097,-2.0976,-2.0993,-2.0975,-2.0997,-2.0994,-2.0992,-2.0875,-2.0864,-2.1012,-2.1012,-2.1012,-2.1012,-2.1012,-2.1012,-2.1067,-2.1103,-2.1081,-2.1113,-2.1099,-2.1117,-2.1117,-2.1114,-2.1107,-2.1127,-2.1135,-2.1118,-2.1103,-2.1108,-2.1116,-2.1108,-2.1112,-2.1141,-2.1127,-2.1017,-2.1001,-2.0985,-2.0974,-2.1143,-2.1143,-2.1243,-2.1244,-2.1244]},{"header":{"parameterUnit":"m.s-1","parameterCategory":1,"la1":30.2991,"la2":30.254,"lo1":-89.0895,"lo2":-89.0444,"dy":0.0017,"dx":0.0017,"nx":28,"ny":28,"refTime":"2024-05-03T09:00:00:Z","depth":0,"parameterNumber":3,"parameterNumberName":"V-component_of_WINDS"},"data":[0,0,0,0,0,0,0,0,0,0,0,0,0,0,0,0,0,0,0,0,0,0,0,0,0,0,0,0,0,0,0,0,0,0,0,0,0,0,0,0,0,0,0,0,0,0,0,0,0,0,0,0,0,0,0,0,0,0,-0.1441,-0.1442,0,-0.1516,-0.1516,-0.1517,-0.1585,-0.1586,-0.1587,-0.1587,-0.1665,-0.1667,-0.1668,0,0,0,0,0,0,0,0,0,0,0,0,0,-0.1359,-0.136,-0.1441,-0.1442,-0.1443,-0.1515,-0.1517,-0.1518,-0.1585,-0.1586,-0.1587,-0.1588,-0.1665,-0.1666,-0.1668,0,0,0,0,0,0,0,0,0,0,0,0,0,-0.141,-0.136,-0.1441,-0.1485,-0.149,-0.1515,-0.1517,-0.1518,-0.1585,-0.1586,-0.1587,-0.1588,-0.1664,-0.1666,-0.1668,-0.1656,0,0,-0.1674,-0.1675,0,0,0,0,0,0,0,0,-0.1407,-0.1413,-0.1478,-0.1482,-0.1487,-0.1542,-0.1516,-0.1564,-0.1584,-0.1549,-0.1587,-0.1589,-0.1623,-0.1629,-0.164,-0.166,-0.1663,-0.1674,-0.1676,-0.1677,-0.1677,0,0,0,0,0,0,0,-0.1403,-0.141,-0.1471,-0.1479,-0.1485,-0.1502,-0.1511,-0.1526,-0.1578,-0.1552,-0.1557,-0.1565,-0.1626,-0.1638,-0.1643,-0.1664,-0.1674,-0.1676,-0.1677,-0.1678,-0.1679,-0.1678,0,0,0,0,0,0,-0.1393,-0.1407,-0.1468,-0.1473,-0.1449,-0.1502,-0.1512,-0.1523,-0.1578,-0.1588,-0.1564,-0.1568,-0.1634,-0.164,-0.1646,-0.1635,-0.1677,-0.1678,-0.168,-0.168,-0.1678,-0.1677,0,0,0,0,0,0,-0.1391,-0.1398,-0.1465,-0.1441,-0.1451,-0.1503,-0.1515,-0.1524,-0.1536,-0.1587,-0.1597,-0.1566,-0.1635,-0.1643,-0.1653,-0.1639,-0.1679,-0.1681,-0.1681,-0.1679,-0.1678,-0.1614,0,0,0,0,0,0,-0.1388,-0.1397,-0.1392,-0.1441,-0.1452,-0.1471,-0.1514,-0.1525,-0.1539,-0.1545,-0.1592,-0.1601,-0.1637,-0.165,-0.1655,-0.1642,-0.1683,-0.1683,-0.168,-0.1678,-0.1618,-0.1611,-0.1604,0,0,0,0,0,-0.1385,-0.1372,-0.1391,-0.1398,-0.1447,-0.147,-0.1476,-0.1517,-0.1538,-0.1534,-0.1567,-0.16,-0.164,-0.165,-0.1657,-0.1644,-0.1684,-0.1681,-0.1678,-0.1621,-0.1612,-0.1604,0,0,0,0,0,0,-0.1321,-0.1379,-0.1401,-0.1403,-0.1431,-0.1481,-0.1477,-0.1507,-0.153,-0.1534,-0.1585,-0.1595,-0.16,-0.1624,-0.1634,-0.1636,-0.1666,-0.1665,-0.162,-0.1612,-0.1606,-0.16,-0.1684,0,0,0,0,0,-0.1306,-0.1319,-0.1369,-0.1366,-0.1379,-0.1425,-0.1437,-0.1466,-0.1497,-0.1509,-0.1543,-0.1572,-0.1592,-0.1604,-0.1624,-0.1622,-0.1633,-0.1617,-0.161,-0.1604,-0.1602,-0.1603,-0.1596,-0.1668,-0.1668,-0.1668,0,0,-0.1278,-0.1311,-0.1316,-0.1354,-0.1379,-0.1391,-0.1435,-0.1446,-0.1456,-0.1511,-0.1523,-0.1549,-0.1585,-0.1589,-0.1592,-0.1609,-0.1585,-0.1601,-0.1596,-0.1597,-0.16,-0.1593,-0.1586,-0.1667,-0.1667,-0.1667,0,0,-0.1231,-0.1258,-0.1258,-0.1282,-0.1319,-0.135,-0.135,-0.1396,-0.1415,-0.1427,-0.1469,-0.1482,-0.1514,-0.1538,-0.1554,-0.1517,-0.1548,-0.1523,-0.1487,-0.1487,-0.1481,-0.1477,-0.1463,-0.1458,-0.1521,-0.152,-0.152,0,-0.1191,-0.121,-0.1254,-0.1263,-0.1278,-0.1328,-0.1329,-0.1351,-0.1393,-0.1403,-0.142,-0.1462,-0.149,-0.15,-0.1491,-0.1503,-0.1505,-0.1517,-0.1479,-0.1474,-0.1471,-0.1458,-0.1453,-0.1517,-0.1518,-0.1518,-0.1518,0,-0.1159,-0.1172,-0.1167,-0.1206,-0.1221,-0.1226,-0.1271,-0.1282,-0.131,-0.1339,-0.1351,-0.1387,-0.1415,-0.142,-0.1448,-0.1434,-0.1443,-0.1469,-0.15,-0.1459,-0.1449,-0.1445,-0.1512,-0.1513,-0.1514,-0.1515,0,0,-0.1073,-0.1136,-0.1134,-0.1152,-0.1196,-0.1208,-0.1215,-0.1242,-0.125,-0.1278,-0.1285,-0.1312,-0.1336,-0.1354,-0.1385,-0.1386,-0.1354,-0.1412,-0.1413,-0.1399,-0.1341,-0.1321,-0.1315,-0.1375,-0.1374,-0.1374,-0.1338,0,-0.1034,-0.1049,-0.1089,-0.1091,-0.1104,-0.1152,-0.1159,-0.1187,-0.1215,-0.123,-0.1262,-0.1279,-0.131,-0.1322,-0.1324,-0.1357,-0.1343,-0.136,-0.1383,-0.1383,-0.1371,-0.1309,-0.1288,-0.1253,-0.1334,-0.1334,-0.1333,0,-0.099,-0.1014,-0.1017,-0.1061,-0.1068,-0.1073,-0.1102,-0.1116,-0.1149,-0.117,-0.119,-0.1224,-0.1235,-0.1264,-0.128,-0.1291,-0.1303,-0.1321,-0.1321,-0.1324,-0.1355,-0.1311,-0.1243,-0.1237,-0.1327,-0.1328,-0.1328,0,-0.0927,-0.096,-0.0966,-0.098,-0.1032,-0.1034,-0.1056,-0.1091,-0.1105,-0.113,-0.114,-0.1166,-0.118,-0.12,-0.1241,-0.1259,-0.1252,-0.1285,-0.127,-0.1269,-0.1266,-0.1266,-0.1198,-0.1274,-0.1274,-0.1274,-0.1274,0,-0.0879,-0.0879,-0.0939,-0.0942,-0.0945,-0.0991,-0.0992,-0.1018,-0.1049,-0.1059,-0.1103,-0.1112,-0.1165,-0.1181,-0.1213,-0.1221,-0.1228,-0.1245,-0.1253,-0.1241,-0.1238,-0.1249,-0.1252,-0.1273,-0.1273,-0.1273,-0.1274,0,-0.0808,-0.0848,-0.0858,-0.0906,-0.0918,-0.0918,-0.0959,-0.0965,-0.0996,-0.1008,-0.1014,-0.1062,-0.1083,-0.1126,-0.1158,-0.118,-0.118,-0.1196,-0.1168,-0.1174,-0.1156,-0.1157,-0.1093,-0.1087,-0.1166,-0.1165,-0.1165,0,-0.0774,-0.0776,-0.0823,-0.0833,-0.0853,-0.0868,-0.0883,-0.0928,-0.0942,-0.098,-0.0981,-0.1005,-0.1026,-0.1057,-0.1095,-0.1121,-0.1137,-0.1113,-0.1141,-0.1128,-0.1136,-0.1135,-0.1136,-0.1106,-0.1105,-0.1104,-0.1103,0,-0.071,-0.073,-0.0748,-0.0774,-0.0789,-0.0812,-0.0837,-0.0843,-0.0895,-0.0907,-0.0928,-0.0945,-0.0978,-0.1001,-0.1032,-0.1055,-0.1088,-0.1094,-0.1092,-0.1079,-0.1063,-0.1071,-0.1151,-0.1095,-0.1096,-0.1097,-0.1097,-0.1098,-0.0657,-0.066,-0.0694,-0.0714,-0.0737,-0.0759,-0.0767,-0.0799,-0.0817,-0.0846,-0.0873,-0.0891,-0.0925,-0.097,-0.0991,-0.1007,-0.1023,-0.102,-0.1019,-0.1018,-0.1012,-0.1061,-0.1013,-0.1013,-0.1014,-0.1014,-0.1014,0,-0.0595,-0.0619,-0.0636,-0.0669,-0.0685,-0.0714,-0.0743,-0.0754,-0.0769,-0.0798,-0.0818,-0.0842,-0.0865,-0.0905,-0.0931,-0.0936,-0.0952,-0.0942,-0.0942,-0.0947,-0.0997,-0.0996,-0.0929,-0.0929,-0.0929,-0.0929,-0.0929,-0.0929,-0.0564,-0.0571,-0.0595,-0.0614,-0.0639,-0.0657,-0.0671,-0.0692,-0.0715,-0.074,-0.0759,-0.0785,-0.0818,-0.0847,-0.087,-0.0881,-0.0889,-0.0873,-0.0889,-0.0935,-0.0943,-0.0951,-0.095,-0.0875,-0.0874,-0.0838,-0.0838,-0.0838]}]]